GREENECSD Weather Reports


Display with metric or nautical units.
time (UTC)temp
F
wind
direction
speed
MPH
gust
MPH
rain 1hr
in
rain 24hr
in
rain mn
in
humidity
%
barometer
mb
20260505120043 61 289 3.0 9.0 0.00 0.00 0.00 65 1006.8
20260505114522 62 203 6.0 12.0 0.00 0.00 0.00 60 1006.7
20260505113021 62 226 5.0 8.0 0.00 0.00 0.00 58 1006.8
20260505111507 62 215 3.0 8.0 0.00 0.00 0.00 58 1006.8
20260505101525 58 290 1.0 4.0 0.00 0.00 0.00 61 1006.2
20260505100019 59 231 2.0 5.0 0.00 0.00 0.00 61 1005.9
20260505094516 60 304 1.0 9.0 0.00 0.00 0.00 59 1005.8
20260505093020 61 188 3.0 7.0 0.00 0.00 0.00 58 1005.7
20260505091528 60 235 3.0 6.0 0.00 0.00 0.00 59 1005.6
20260505090038 60 234 2.0 5.0 0.00 0.00 0.00 59 1005.5
20260505084512 60 240 3.0 8.0 0.00 0.00 0.00 58 1005.5
20260505083018 60 234 1.0 3.0 0.00 0.00 0.00 57 1005.5
20260505081522 60 202 2.0 3.0 0.00 0.00 0.00 56 1005.6
20260505080035 61 219 1.0 5.0 0.00 0.00 0.00 55 1005.5
20260505074524 61 193 1.0 5.0 0.00 0.00 0.00 55 1005.7
20260505073028 60 255 3.0 5.0 0.00 0.00 0.00 55 1005.7
20260505071520 60 216 4.0 8.0 0.00 0.00 0.00 54 1005.7
20260505070024 60 217 3.0 6.0 0.00 0.00 0.00 54 1005.7
20260505064538 60 220 4.0 7.0 0.00 0.00 0.00 54 1005.8
20260505063026 60 226 3.0 7.0 0.00 0.00 0.00 53 1005.7
20260505061530 60 200 3.0 8.0 0.00 0.00 0.00 53 1005.7
20260505060023 60 233 2.0 6.0 0.00 0.00 0.00 53 1005.7
20260505054542 60 268 1.0 5.0 0.00 0.00 0.00 53 1005.8
20260505053031 61 249 2.0 9.0 0.00 0.00 0.00 51 1005.8
20260505051517 61 155 3.0 7.0 0.00 0.00 0.00 51 1006.0
20260505041526 62 158 1.0 4.0 0.00 0.00 0.00 49 1005.8
20260505040020 63 253 2.0 7.0 0.00 0.00 0.00 48 1005.8
20260505034523 63 224 3.0 9.0 0.00 0.00 0.00 47 1005.8
20260505033025 63 231 2.0 9.0 0.00 0.00 0.00 46 1005.7
20260505031540 64 210 3.0 13.0 0.00 0.00 0.00 46 1005.7
20260505030028 64 193 5.0 11.0 0.00 0.00 0.00 45 1005.8
20260505024534 64 212 4.0 8.0 0.00 0.00 0.00 45 1005.9
20260505023028 64 274 2.0 12.0 0.00 0.00 0.00 44 1006.0
20260505021528 65 214 5.0 12.0 0.00 0.00 0.00 43 1005.9
20260505020032 65 224 4.0 7.0 0.00 0.00 0.00 42 1005.9
20260505014531 65 206 5.0 8.0 0.00 0.00 0.00 41 1005.9
20260505013024 66 241 4.0 11.0 0.00 0.00 0.00 41 1005.8
20260505011532 66 184 6.0 12.0 0.00 0.00 0.00 41 1005.8
20260505010028 66 190 2.0 7.0 0.00 0.00 0.00 40 1005.6
20260505004537 67 158 4.0 8.0 0.00 0.00 0.00 39 1005.5
20260505003023 67 210 5.0 10.0 0.00 0.00 0.00 38 1005.3
20260505001527 68 199 3.0 13.0 0.00 0.00 0.00 38 1005.3
20260505000042 68 212 3.0 10.0 0.00 0.00 0.00 36 1005.2
20260504234515 69 232 3.0 6.0 0.00 0.00 0.00 35 1005.0
20260504233022 70 202 4.0 10.0 0.00 0.00 0.00 35 1004.9
20260504231523 70 182 4.0 10.0 0.00 0.00 0.00 35 1004.9
20260504230027 71 205 6.0 12.0 0.00 0.00 0.00 34 1004.9
20260504224528 71 188 10.0 18.0 0.00 0.00 0.00 33 1004.7
20260504223020 71 195 4.0 13.0 0.00 0.00 0.00 33 1004.7
20260504221521 71 210 4.0 12.0 0.00 0.00 0.00 34 1004.7
20260504220028 72 221 7.0 15.0 0.00 0.00 0.00 32 1004.7
20260504214526 72 170 6.0 16.0 0.00 0.00 0.00 33 1004.8
20260504213026 72 186 9.0 15.0 0.00 0.00 0.00 31 1004.8
20260504211520 72 285 6.0 14.0 0.00 0.00 0.00 32 1004.8
20260504210028 71 233 6.0 17.0 0.00 0.00 0.00 33 1004.9
20260504204527 71 243 9.0 16.0 0.00 0.00 0.00 33 1005.0
20260504203028 71 176 5.0 15.0 0.00 0.00 0.00 33 1005.2
20260504201521 71 224 7.0 14.0 0.00 0.00 0.00 35 1005.4
20260504200026 70 233 6.0 20.0 0.00 0.00 0.00 34 1005.7
20260504194526 70 233 6.0 17.0 0.00 0.00 0.00 36 1005.8
20260504193027 70 238 5.0 15.0 0.00 0.00 0.00 36 1006.0
20260504191528 71 231 7.0 15.0 0.00 0.00 0.00 34 1006.1
20260504190024 70 210 9.0 17.0 0.00 0.00 0.00 35 1006.2
20260504184524 69 315 4.0 13.0 0.00 0.00 0.00 39 1006.3
20260504183028 68 201 10.0 18.0 0.00 0.00 0.00 37 1006.3
20260504181532 68 212 8.0 14.0 0.00 0.00 0.00 38 1006.5
20260504180026 68 222 7.0 19.0 0.00 0.00 0.00 37 1006.7
20260504174525 67 245 9.0 19.0 0.00 0.00 0.00 38 1006.8
20260504173010 67 250 8.0 20.0 0.00 0.00 0.00 39 1006.9
20260504171512 66 187 6.0 20.0 0.00 0.00 0.00 40 1007.0